• In Hungary
  • List of Countries
  • For 7 days
  • Water Temperature
  • Satellite Maps
  • Weather Map
  • News
  • Weather Widgets
  • user-avatar
    Login

    Hourly Weather Manama

    Today, 20 August, Monday

    Time Temperature Precipitation Wind Pressure Humidity
    00:00 +37°C° 0 mm 3 mps 748 mmHg 30%
    01:00 +37°C° 0 mm 4 mps 748 mmHg 29%
    02:00 +37°C° 0 mm 4 mps 748 mmHg 29%
    03:00 +37°C° 0 mm 5 mps 748 mmHg 24%
    04:00 +37°C° 0 mm 5 mps 748 mmHg 24%
    05:00 +38°C° 0 mm 6 mps 748 mmHg 25%
    06:00 +38°C° 0 mm 6 mps 749 mmHg 25%
    07:00 +40°C° 0 mm 6 mps 749 mmHg 22%
    08:00 +42°C° 0 mm 6 mps 749 mmHg 19%
    09:00 +45°C° 0 mm 5 mps 749 mmHg 16%
    10:00 +46°C° 0 mm 5 mps 749 mmHg 16%
    11:00 +46°C° 0 mm 5 mps 749 mmHg 17%
    12:00 +47°C° 0 mm 6 mps 749 mmHg 17%
    13:00 +47°C° 0 mm 6 mps 749 mmHg 18%
    14:00 +47°C° 0 mm 6 mps 749 mmHg 19%
    15:00 +46°C° 0 mm 7 mps 749 mmHg 20%
    16:00 +45°C° 0 mm 6 mps 749 mmHg 23%
    17:00 +44°C° 0 mm 6 mps 749 mmHg 25%
    18:00 +42°C° 0 mm 6 mps 749 mmHg 27%
    19:00 +41°C° 0 mm 4 mps 749 mmHg 28%
    20:00 +39°C° 0 mm 3 mps 749 mmHg 29%
    21:00 +38°C° 0 mm 2 mps 749 mmHg 29%
    22:00 +38°C° 0 mm 2 mps 749 mmHg 28%
    23:00 +37°C° 0 mm 3 mps 749 mmHg 26%

    Tomorrow, 21 August, Tuesday

    Time Temperature Precipitation Wind Pressure Humidity
    00:00 +37°C° 0 mm 3 mps 748 mmHg 25%
    01:00 +37°C° 0 mm 3 mps 748 mmHg 26%
    02:00 +37°C° 0 mm 4 mps 748 mmHg 26%
    03:00 +37°C° 0 mm 4 mps 748 mmHg 27%
    04:00 +36°C° 0 mm 4 mps 748 mmHg 27%
    05:00 +36°C° 0 mm 4 mps 749 mmHg 27%
    06:00 +36°C° 0 mm 4 mps 749 mmHg 27%
    07:00 +38°C° 0 mm 4 mps 749 mmHg 24%
    08:00 +41°C° 0 mm 4 mps 749 mmHg 21%
    09:00 +42°C° 0 mm 5 mps 749 mmHg 19%
    10:00 +43°C° 0 mm 4 mps 749 mmHg 21%
    11:00 +44°C° 0 mm 4 mps 749 mmHg 23%
    12:00 +45°C° 0 mm 4 mps 749 mmHg 25%
    13:00 +44°C° 0 mm 4 mps 749 mmHg 27%
    14:00 +44°C° 0 mm 4 mps 748 mmHg 28%
    15:00 +45°C° 0 mm 5 mps 748 mmHg 29%
    16:00 +43°C° 0 mm 4 mps 748 mmHg 33%
    17:00 +42°C° 0 mm 4 mps 748 mmHg 37%
    18:00 +40°C° 0 mm 4 mps 748 mmHg 41%
    19:00 +40°C° 0 mm 4 mps 748 mmHg 42%
    20:00 +38°C° 0 mm 3 mps 749 mmHg 44%
    21:00 +37°C° 0 mm 2 mps 749 mmHg 46%
    22:00 +37°C° 0 mm 2 mps 749 mmHg 46%
    23:00 +35°C° 0 mm 1 mps 749 mmHg 45%

    Day after tomorrow, 22 August, Wednesday

    Time Temperature Precipitation Wind Pressure Humidity
    00:00 +32°C° 0 mm 0 mps 749 mmHg 45%
    01:00 +34°C° 0 mm 1 mps 748 mmHg 43%
    02:00 +34°C° 0 mm 1 mps 748 mmHg 40%
    03:00 +35°C° 0 mm 1 mps 748 mmHg 37%
    04:00 +36°C° 0 mm 2 mps 748 mmHg 35%
    05:00 +36°C° 0 mm 3 mps 748 mmHg 33%
    06:00 +37°C° 0 mm 3 mps 749 mmHg 31%
    07:00 +38°C° 0 mm 3 mps 749 mmHg 27%
    08:00 +40°C° 0 mm 3 mps 749 mmHg 23%
    09:00 +43°C° 0 mm 3 mps 749 mmHg 18%
    10:00 +44°C° 0 mm 4 mps 749 mmHg 18%
    11:00 +45°C° 0 mm 4 mps 749 mmHg 19%
    12:00 +47°C° 0 mm 4 mps 749 mmHg 19%
    13:00 +45°C° 0 mm 4 mps 748 mmHg 22%
    14:00 +45°C° 0 mm 4 mps 748 mmHg 25%
    15:00 +45°C° 0 mm 4 mps 748 mmHg 27%
    16:00 +43°C° 0 mm 4 mps 748 mmHg 32%
    17:00 +42°C° 0 mm 3 mps 748 mmHg 37%
    18:00 +39°C° 0 mm 3 mps 748 mmHg 42%
    19:00 +39°C° 0 mm 2 mps 748 mmHg 45%
    20:00 +38°C° 0 mm 2 mps 749 mmHg 47%
    21:00 +36°C° 0 mm 1 mps 749 mmHg 50%
    22:00 +36°C° 0 mm 1 mps 749 mmHg 48%
    23:00 +36°C° 0 mm 1 mps 748 mmHg 46%

    23 August, Thursday

    Time Temperature Precipitation Wind Pressure Humidity
    00:00 +35°C° 0 mm 1 mps 748 mmHg 44%
    01:00 +37°C° 0 mm 2 mps 748 mmHg 41%
    02:00 +37°C° 0 mm 2 mps 748 mmHg 39%
    03:00 +37°C° 0 mm 3 mps 747 mmHg 36%
    04:00 +37°C° 0 mm 4 mps 748 mmHg 33%
    05:00 +37°C° 0 mm 4 mps 748 mmHg 31%
    06:00 +37°C° 0 mm 5 mps 748 mmHg 28%
    07:00 +40°C° 0 mm 5 mps 748 mmHg 25%
    08:00 +42°C° 0 mm 5 mps 749 mmHg 22%
    09:00 +45°C° 0 mm 6 mps 749 mmHg 18%
    10:00 +46°C° 0 mm 6 mps 749 mmHg 20%
    11:00 +47°C° 0 mm 6 mps 749 mmHg 21%
    12:00 +47°C° 0 mm 6 mps 748 mmHg 22%
    13:00 +47°C° 0 mm 6 mps 748 mmHg 23%
    14:00 +47°C° 0 mm 6 mps 747 mmHg 24%
    15:00 +46°C° 0 mm 6 mps 747 mmHg 25%
    16:00 +45°C° 0 mm 6 mps 747 mmHg 29%
    17:00 +43°C° 0 mm 5 mps 747 mmHg 32%
    18:00 +41°C° 0 mm 4 mps 747 mmHg 36%
    19:00 +41°C° 0 mm 4 mps 748 mmHg 37%
    20:00 +39°C° 0 mm 3 mps 748 mmHg 38%
    21:00 +38°C° 0 mm 3 mps 749 mmHg 39%
    22:00 +38°C° 0 mm 3 mps 748 mmHg 37%
    23:00 +38°C° 0 mm 3 mps 748 mmHg 36%

    24 August, Friday

    Time Temperature Precipitation Wind Pressure Humidity
    00:00 +38°C° 0 mm 3 mps 748 mmHg 34%
    01:00 +38°C° 0 mm 3 mps 748 mmHg 36%
    02:00 +38°C° 0 mm 3 mps 748 mmHg 39%
    03:00 +37°C° 0 mm 3 mps 747 mmHg 41%
    04:00 +37°C° 0 mm 4 mps 748 mmHg 44%
    05:00 +37°C° 0 mm 5 mps 748 mmHg 48%
    06:00 +37°C° 0 mm 5 mps 748 mmHg 52%
    07:00 +40°C° 0 mm 6 mps 749 mmHg 44%
    08:00 +42°C° 0 mm 6 mps 749 mmHg 36%
    09:00 +45°C° 0 mm 6 mps 749 mmHg 29%
    10:00 +46°C° 0 mm 6 mps 749 mmHg 27%
    11:00 +46°C° 0 mm 7 mps 749 mmHg 25%
    12:00 +47°C° 0 mm 7 mps 749 mmHg 22%
    13:00 +47°C° 0 mm 7 mps 749 mmHg 23%
    14:00 +46°C° 0 mm 7 mps 748 mmHg 24%
    15:00 +46°C° 0 mm 7 mps 748 mmHg 24%
    16:00 +45°C° 0 mm 6 mps 748 mmHg 27%
    17:00 +44°C° 0 mm 6 mps 748 mmHg 30%
    18:00 +42°C° 0 mm 5 mps 748 mmHg 33%
    19:00 +41°C° 0 mm 4 mps 748 mmHg 35%
    20:00 +39°C° 0 mm 3 mps 749 mmHg 37%
    21:00 +38°C° 0 mm 3 mps 749 mmHg 40%
    22:00 +38°C° 0 mm 3 mps 748 mmHg 39%
    23:00 +38°C° 0 mm 3 mps 748 mmHg 38%

    25 August, Saturday

    Time Temperature Precipitation Wind Pressure Humidity
    00:00 +38°C° 0 mm 3 mps 748 mmHg 37%
    01:00 +38°C° 0 mm 3 mps 748 mmHg 40%
    02:00 +38°C° 0 mm 4 mps 747 mmHg 42%
    03:00 +37°C° 0 mm 4 mps 747 mmHg 44%
    04:00 +37°C° 0 mm 5 mps 748 mmHg 46%
    05:00 +37°C° 0 mm 5 mps 748 mmHg 48%
    06:00 +37°C° 0 mm 5 mps 748 mmHg 51%
    07:00 +40°C° 0 mm 5 mps 749 mmHg 43%
    08:00 +42°C° 0 mm 5 mps 749 mmHg 36%
    09:00 +45°C° 0 mm 5 mps 749 mmHg 29%
    10:00 +46°C° 0 mm 5 mps 749 mmHg 26%
    11:00 +47°C° 0 mm 5 mps 749 mmHg 22%
    12:00 +48°C° 0 mm 5 mps 748 mmHg 19%
    13:00 +48°C° 0 mm 6 mps 748 mmHg 19%
    14:00 +47°C° 0 mm 6 mps 748 mmHg 20%
    15:00 +47°C° 0 mm 7 mps 747 mmHg 21%
    16:00 +45°C° 0 mm 6 mps 747 mmHg 25%
    17:00 +44°C° 0 mm 6 mps 748 mmHg 28%
    18:00 +41°C° 0 mm 5 mps 748 mmHg 32%
    19:00 +40°C° 0 mm 4 mps 748 mmHg 35%
    20:00 +39°C° 0 mm 3 mps 748 mmHg 38%
    21:00 +38°C° 0 mm 3 mps 748 mmHg 40%
    22:00 +37°C° 0 mm 2 mps 748 mmHg 40%
    23:00 +36°C° 0 mm 1 mps 748 mmHg 39%
    Show more